Helicity
3 8 10 9 -3 -14 49 40 -25 113 25 172 74 96 26 35 56 37 55 63 40 86 130 271 273 250 242 65 143 208 205 221 251 107 308 249 167 152 163 200 186 232 209 165
3 2 2 6 -3 24 69 4 4 117 55 66 117 86 55 47 31 55 46 62 41 141 122 172 213 243 214 158 102 176 166 256 384 304 273 270 184 183 129 164 210 113 166 175
8 5 1 -2 -17 21 84 19 25 57 60 57 73 85 112 60 31 76 58 74 56 66 150 105 170 255 141 204 130 158 132 192 164 166 169 205 177 163 175 150 181 149 131 180
11 7 8 -3 -14 24 54 -10 21 35 52 47 74 82 73 75 66 52 39 63 21 92 102 127 132 190 237 179 258 170 152 167 148 128 136 69 99 148 148 170 139 159 129 112
20 11 10 9 -6 2 -25 8 34 53 51 51 68 63 65 64 55 97 64 59 62 53 91 115 185 179 139 175 285 255 272 144 162 149 193 99 77 112 98 97 92 85 83 85
23 19 15 22 10 13 7 4 43 26 45 70 77 71 85 86 71 104 72 69 66 45 83 93 151 143 122 159 233 249 229 221 202 193 156 119 145 174 95 98 269 287 143 189
18 27 26 26 42 39 -0 21 52 45 59 67 73 61 86 81 100 150 120 52 65 116 89 23 19 48 115 118 109 114 211 210 246 194 196 126 153 293 250 256 341 378 340 335
8 27 31 30 65 71 49 35 26 63 73 50 76 27 66 60 92 153 175 76 83 126 63 19 79 129 142 136 100 51 89 201 247 249 190 147 237 283 288 347 313 397 411 383
3 22 36 44 56 92 86 63 40 69 83 85 66 51 64 58 63 64 180 119 56 35 40 22 34 135 161 184 150 86 91 79 188 207 279 213 319 346 214 183 181 374 381 404
10 14 31 47 50 113 104 85 55 66 84 81 61 53 39 65 95 101 134 51 66 52 54 64 27 80 125 127 150 210 222 148 167 196 208 111 212 276 101 148 207 394 365 330
13 14 18 41 62 118 109 100 72 73 82 68 91 51 42 63 91 71 125 29 81 57 81 68 35 12 40 111 73 104 149 199 170 114 153 172 75 59 142 152 131 191 207 141
12 12 16 24 62 113 117 90 98 70 65 86 91 66 63 70 89 92 90 46 77 62 52 71 55 36 -22 6 112 59 70 71 105 118 135 109 53 65 65 28 29 81 101 133
48 19 11 20 63 106 114 107 81 77 77 82 106 98 99 104 77 112 75 72 82 82 64 60 55 58 13 32 2 39 34 39 33 81 50 91 68 -93 5 40 73 68 44 73
47 20 24 23 89 89 114 76 87 60 69 82 109 118 80 115 49 105 115 119 109 92 81 53 62 65 60 65 12 -24 -8 59 70 61 56 76 21 -36 78 88 63 63 81 40
52 26 44 13 71 125 126 117 91 79 42 84 116 85 70 73 49 88 118 120 104 81 82 72 59 79 85 85 77 52 66 31 30 86 74 78 129 115 104 144 140 112 85 144
43 30 39 17 70 133 91 66 80 65 50 55 76 89 77 58 74 108 109 97 105 103 106 103 80 73 61 58 59 74 101 103 97 58 77 43 38 83 32 119 160 112 80 85
46 48 44 66 108 161 113 120 121 119 108 70 65 70 89 49 73 91 79 110 127 138 135 105 102 79 78 60 32 67 111 117 88 83 60 57 40 43 41 10 31 52 79 46
42 65 47 108 164 224 129 131 175 174 83 58 59 70 90 77 69 55 91 104 136 140 150 119 112 102 81 24 15 84 69 49 42 46 109 80 18 6 18 21 19 22 31 51
63 84 174 168 153 107 107 138 213 95 40 58 75 79 73 111 78 77 90 124 143 134 132 143 100 113 90 52 52 44 50 54 88 85 56 67 54 28 32 31 36 19 39 47
100 126 112 93 102 154 154 120 35 34 43 80 64 110 112 120 76 91 89 119 120 141 149 123 119 108 85 59 48 75 87 86 99 66 44 53 41 39 59 70 73 49 57 57
95 104 124 188 161 121 77 35 29 39 39 54 101 135 183 182 129 148 120 136 134 148 167 148 189 130 106 65 69 85 90 95 100 81 57 56 52 47 70 90 88 80 63 50
180 161 263 197 115 72 82 106 61 33 29 93 121 171 213 192 170 136 127 131 164 137 217 225 187 120 99 78 52 75 98 95 61 94 64 52 53 71 78 90 89 86 61 46
211 213 129 111 79 86 115 157 128 87 138 171 169 186 196 179 138 175 163 195 233 248 260 242 184 158 76 52 71 72 90 86 58 63 88 76 65 77 97 83 88 70 62 61
164 167 90 145 144 106 148 154 191 215 278 346 351 300 234 282 205 179 235 276 301 339 308 175 170 89 69 61 46 94 79 86 66 63 89 86 87 87 94 90 78 67 58 71
189 233 168 181 216 259 243 249 318 330 389 524 487 361 301 290 276 239 288 269 275 231 156 159 182 165 146 74 58 49 64 77 83 97 112 119 105 101 106 97 87 68 53 65
378 389 369 386 397 367 403 401 411 409 503 537 420 359 299 270 291 327 250 302 268 206 171 158 204 175 119 81 61 59 85 87 96 104 107 112 130 124 106 94 96 78 68 66
358 342 431 477 409 319 313 337 402 523 604 469 384 338 266 353 317 321 287 330 194 166 156 168 155 139 113 107 85 91 95 83 98 110 110 119 127 120 118 124 104 80 71 61
Wind_Speed
90 89 90 88 87 72 65 68 79 61 52 69 65 72 59 51 52 45 41 29 25 26 29 41 44 49 47 34 37 51 49 50 69 75 52 72 83 93 87 88 87 75 73 70
91 92 91 91 91 76 57 67 70 66 65 76 71 63 63 51 60 57 47 41 11 28 29 35 38 45 42 37 38 42 36 59 68 65 68 67 86 89 95 91 74 93 87 67
93 93 94 94 89 77 59 62 68 64 79 74 71 64 69 62 49 53 47 44 33 27 25 30 39 42 39 43 38 40 42 44 66 79 80 67 92 92 86 91 99 95 96 82
94 92 94 93 90 79 58 64 69 63 76 75 74 67 66 68 59 50 51 45 38 15 28 34 40 39 45 41 38 41 43 60 54 55 55 65 71 87 86 92 100 103 86 86
95 90 91 93 93 71 74 67 62 61 65 64 70 70 69 67 58 51 50 48 32 23 27 37 45 46 42 44 46 44 46 59 54 61 54 65 75 66 76 89 90 95 94 97
95 89 86 88 90 75 68 61 54 56 66 65 65 66 62 62 58 47 41 38 34 32 13 50 55 58 58 60 56 50 46 57 65 77 58 55 77 72 80 72 65 78 100 78
94 90 82 83 83 76 65 62 55 56 66 65 66 61 58 57 54 49 42 42 39 32 9 44 34 32 37 41 45 49 53 50 58 69 56 87 60 48 52 52 54 59 69 73
91 90 81 76 73 66 64 60 60 55 58 58 61 64 61 55 54 49 45 48 32 19 28 37 26 31 29 30 28 39 44 49 52 63 74 52 54 52 59 63 67 58 68 73
88 89 82 72 69 60 55 59 55 54 50 58 53 57 57 61 60 58 44 37 36 42 43 45 42 30 39 41 39 32 36 41 50 50 65 76 55 60 55 53 79 61 65 71
84 86 82 70 65 57 53 52 53 52 49 45 47 57 57 53 55 53 46 44 48 51 50 51 48 35 35 38 40 46 43 44 53 59 61 50 47 55 39 66 68 66 67 71
81 82 82 70 62 55 51 48 51 47 45 38 40 44 50 52 54 58 46 44 52 53 56 46 40 38 25 34 36 39 41 48 51 53 62 69 52 44 54 52 59 66 69 70
80 81 81 70 61 55 50 50 49 42 40 38 38 38 38 41 46 49 49 43 40 45 47 45 37 35 30 30 37 39 45 42 50 51 54 52 54 54 40 50 63 69 74 76
77 78 79 69 59 55 50 49 51 46 41 35 36 36 34 39 43 36 47 39 34 37 36 36 38 39 30 27 26 35 42 42 49 55 46 61 61 32 50 67 72 75 76 81
73 76 76 69 56 51 46 49 47 48 45 35 34 33 33 33 41 39 32 31 30 31 32 33 34 35 30 31 26 18 18 32 51 60 58 62 44 53 77 80 79 80 82 83
72 74 75 67 53 45 45 41 40 48 47 39 33 32 30 36 42 42 38 34 32 31 32 30 31 33 32 32 30 25 24 23 29 46 53 64 73 75 83 84 85 87 89 91
70 72 72 62 47 42 44 42 31 46 42 37 35 33 32 38 41 44 43 40 34 31 31 30 30 30 29 29 30 27 24 22 21 29 36 48 77 80 79 85 90 89 91 92
66 71 70 53 42 42 40 39 42 43 42 33 31 30 33 39 40 43 41 38 37 34 31 28 24 26 28 25 29 26 16 20 19 14 36 43 42 62 78 82 88 90 93 91
66 70 65 44 41 39 38 40 42 39 35 30 30 32 33 42 43 46 46 39 34 36 31 29 26 26 27 27 20 26 30 31 33 30 31 43 64 74 77 78 81 85 88 93
67 67 51 44 40 39 40 43 42 32 26 30 30 35 39 40 46 47 44 42 36 33 29 29 28 26 24 24 25 24 28 34 40 41 47 52 57 71 77 81 84 87 89 89
61 58 53 48 39 41 43 42 31 31 33 32 31 35 37 44 48 46 48 41 38 38 33 31 25 29 19 20 26 29 32 35 44 53 57 58 64 70 75 79 80 84 88 90
53 58 51 48 48 45 36 30 30 31 34 31 35 35 41 46 49 47 41 41 39 39 34 31 32 35 18 16 24 31 35 37 39 42 48 53 55 67 71 75 76 80 82 86
49 52 50 48 39 34 33 29 28 31 35 34 40 39 42 44 43 43 42 41 38 41 36 39 39 33 12 19 27 34 36 39 43 44 48 53 55 56 61 65 70 71 75 78
49 46 46 40 34 37 37 35 31 33 31 31 39 47 44 42 40 42 41 42 41 39 42 43 35 23 13 21 32 37 40 42 44 46 47 50 57 58 59 64 66 67 71 70
44 42 45 36 37 35 33 32 34 35 38 33 40 47 45 43 45 40 43 41 43 45 46 44 31 16 17 22 33 39 41 39 42 44 49 51 55 59 56 56 60 63 65 63
39 33 44 35 37 36 37 33 37 43 35 38 51 52 46 45 44 40 41 45 46 41 45 40 28 23 21 27 36 39 40 40 40 40 42 46 51 54 52 54 56 56 56 54
38 36 47 50 54 51 45 43 47 38 36 47 52 51 52 49 42 42 40 48 50 50 40 33 31 26 27 33 37 38 39 38 37 38 39 44 46 48 46 47 51 50 49 47
41 50 47 52 57 59 56 50 50 34 42 58 52 55 52 42 49 49 43 53 52 42 36 34 30 28 31 34 36 35 36 36 37 41 40 43 44 42 42 43 46 44 42 40
Wind_Direction
27 28 28 29 29 35 50 51 46 40 57 52 52 52 57 58 56 63 72 84 299 281 256 232 226 224 232 259 252 234 237 234 220 221 234 231 229 228 229 233 234 242 246 248
27 26 27 28 29 37 50 49 49 50 59 49 50 53 52 62 53 55 64 72 295 293 259 235 238 239 245 254 247 239 243 232 222 228 239 236 231 231 231 237 245 240 241 245
26 26 26 27 29 35 50 49 43 46 49 51 50 51 48 50 60 61 63 67 88 309 273 257 242 242 245 254 256 254 250 241 233 231 232 235 230 232 235 237 240 242 244 247
25 26 26 27 28 34 49 46 45 50 42 45 48 52 47 47 53 58 58 65 65 276 289 267 254 255 257 254 266 258 252 240 244 246 246 240 240 236 237 240 243 244 248 250
23 25 26 26 27 38 45 43 44 49 47 47 47 49 46 46 50 53 54 54 55 89 260 278 258 261 257 251 260 258 264 245 247 245 252 246 242 245 244 245 247 251 253 255
21 25 27 27 28 37 42 45 51 49 43 45 46 45 44 45 45 55 57 49 49 64 97 285 268 262 258 257 259 260 263 253 247 244 252 251 248 251 249 251 255 256 251 259
20 23 27 27 30 37 45 43 45 43 40 43 43 43 44 43 44 48 49 48 53 56 309 280 288 278 265 267 263 260 258 261 252 246 249 246 256 271 268 250 262 269 265 267
19 21 24 27 31 37 40 42 41 42 41 43 43 40 42 43 43 48 52 45 53 37 63 66 309 270 274 273 287 268 263 260 258 251 246 255 261 273 266 259 259 277 273 274
16 17 21 25 28 34 38 36 41 40 42 39 44 42 42 40 38 41 51 47 58 54 63 66 20 281 265 269 271 290 274 267 258 261 250 249 267 283 279 268 257 284 283 280
13 14 17 23 25 31 35 35 35 38 39 45 44 40 40 42 41 40 47 47 51 51 58 62 32 13 290 272 271 274 272 269 259 259 258 264 290 294 284 257 265 286 287 285
11 11 12 18 23 28 30 31 29 33 36 44 47 44 40 41 42 40 40 51 48 50 50 62 73 70 38 296 291 285 277 270 266 266 261 258 305 294 277 282 289 291 290 290
7 7 7 13 18 23 27 24 26 32 37 38 44 44 49 48 46 40 42 53 56 54 54 58 69 74 81 43 298 297 278 285 276 274 272 290 297 292 300 303 296 291 291 291
3 3 4 9 15 19 23 23 22 27 28 34 36 37 50 50 42 52 38 49 60 56 61 64 63 59 70 74 43 333 300 295 287 290 290 294 297 294 300 305 298 295 294 291
1 1 1 4 10 17 22 19 24 24 20 26 30 38 40 49 37 39 50 53 60 59 55 54 54 53 73 59 63 70 54 331 298 289 290 299 297 296 299 298 297 295 295 292
358 356 356 1 6 14 17 19 22 21 16 11 18 25 34 33 28 31 37 45 50 55 49 49 42 41 47 46 49 58 67 50 359 317 306 297 294 298 297 298 298 298 295 294
354 355 354 357 4 9 8 8 21 11 15 14 16 23 26 23 21 23 25 28 40 42 43 41 39 34 38 35 30 42 65 57 42 16 357 332 295 301 301 301 299 298 295 295
351 351 350 354 2 3 4 3 2 6 9 16 17 22 19 15 18 14 18 23 22 27 31 38 41 31 28 34 19 25 43 29 24 26 359 352 350 331 315 308 302 300 298 297
349 347 350 358 5 9 2 4 2 6 9 18 16 14 14 10 9 6 6 10 18 18 19 24 21 24 17 9 27 19 6 1 356 356 353 342 328 320 318 319 318 314 307 299
348 349 354 356 359 1 1 357 358 13 14 13 13 7 4 9 3 2 2 2 5 13 15 13 12 9 6 11 11 10 3 358 351 345 340 338 336 328 325 323 321 318 316 313
346 352 353 351 360 357 355 358 11 13 8 7 6 5 0 360 358 358 355 359 358 357 4 10 7 349 352 5 5 3 359 353 346 340 339 338 334 332 331 330 331 326 323 318
347 346 347 348 347 348 358 6 9 11 6 10 3 0 355 360 354 353 359 354 355 349 358 359 356 351 355 360 354 353 351 351 348 343 340 338 338 335 336 335 335 334 332 325
339 341 342 347 356 2 357 357 2 2 1 7 0 358 355 356 358 357 357 352 353 345 353 346 344 346 24 2 350 347 348 346 343 344 340 338 338 340 340 340 340 342 338 335
338 341 345 352 357 348 346 341 343 347 353 355 353 349 353 355 357 352 352 348 342 350 340 337 339 353 10 353 346 345 344 344 343 343 343 342 338 340 343 342 344 345 342 344
333 335 337 342 341 337 337 333 336 341 342 342 345 343 342 344 343 346 342 343 342 337 333 333 345 343 344 345 340 341 341 344 343 345 343 343 343 340 347 351 349 347 346 351
322 328 329 324 324 329 334 332 328 331 336 336 335 335 333 334 333 337 338 337 333 333 334 339 343 344 339 336 334 336 340 342 345 348 349 348 345 344 351 354 353 352 353 359
310 307 310 317 315 310 311 313 317 321 322 329 329 327 326 323 328 327 322 327 322 328 331 336 341 339 333 331 331 334 338 341 346 347 349 346 348 348 353 357 356 357 360 6
305 306 303 304 307 308 310 310 313 313 312 314 320 316 315 326 320 317 319 316 321 326 329 332 332 329 329 331 332 334 336 339 343 342 345 345 346 350 352 356 356 359 3 9